Weather in Lesnyye Polyany

Russia / Kirov Oblast     59°00′04″N   52°25′00″E
temp.,
°C
wind,
m/s
gust,
m/s
humid.,
%
clouds,
%
prec.,
mm/h
press.,
hPa
HPBL,
m
2 march, tue
tue200:00−12ssw61394100 0.9 1004530
03:00−11ssw61494100 2.8 1000580
06:00−9ssw61493100 0.9 995570
09:00−5ssw61395100 1.8 993557
12:00−1ssw5999100 1.1 991502
15:000w3798100 2.6 991560
18:00−3w2596100 0.5 991113
21:00−5wnw259797 0.5 99395
3 march, wed
wed300:00−5wnw379799 0.3 993264
03:00−9w279897 0.3 994153
06:00−9w259798 0.1 994129
09:00−6wnw259695 0.4 996295
12:00−3nw3592100 0.4 996641
15:00−5wnw4794100 1.1 997661
18:00−8w3996100 0.2 997307
21:00−11w2797100 0.3 998162
4 march, thu
thu400:00−12wsw259894 0.1 997126
03:00−12wsw389797 0.2 997210
06:00−11wsw3796100 0.2 995264
09:00−9sw2596100 0.2 994254
12:00−5ssw3594100 0.3 993497
15:00−4wsw3588100 0.9 993716
18:00−8ssw2296100 0.3 99234
21:00−9se0197100 0.4 99121
5 march, fri
fri500:00−5ese2597100 2.8 986347
03:00−7n4995100 4.4 988436
06:00−10nnw41095100 0.2 992400
09:00−13nw4796100 0.3 996336
12:00−11wnw4693100 0.0 999496
15:00−10wnw4792100 0.1 1002639
18:00−12wnw3894100 0.1 1005588
21:00−16wnw2698100 0.2 1008161
6 march, sat
sat600:00−19w2399100 0.0 101042
03:00−20wsw239999 0.1 101146
06:00−21sw2210069 0.0 101120
09:00−16sw359674 0.0 1011239
12:00−11sw359398 0.1 1009449
15:00−10wsw359199 0.2 1008616
18:00−13wsw2297100 0.1 100736
21:00−15wsw129897 0.3 100722